When you browse on this site, cookies collect data to enhance your experience and personalize the content and advertising you see.
Visit our Privacy Policy to learn more. By continuing to use the site, you agree to this use of cookies and data.

Stündliche Wetter Scharan

Heute, 18 September, Freitag

Zeit Temperatur Niederschläge Wind Luftdruck Luftfeuchtigkeit
00:00 +18°C° 0 mm 2 m/S 587 mmHg 16%
01:00 +18°C° 0 mm 2 m/S 586 mmHg 17%
02:00 +17°C° 0 mm 2 m/S 586 mmHg 19%
03:00 +16°C° 0 mm 1 m/S 586 mmHg 20%
04:00 +15°C° 0 mm 1 m/S 585 mmHg 21%
05:00 +15°C° 0 mm 1 m/S 585 mmHg 22%
06:00 +16°C° 0 mm 1 m/S 586 mmHg 21%
07:00 +18°C° 0 mm 1 m/S 587 mmHg 19%
08:00 +19°C° 0 mm 1 m/S 587 mmHg 18%
09:00 +20°C° 0 mm 1 m/S 588 mmHg 17%
10:00 +22°C° 0 mm 1 m/S 588 mmHg 16%
11:00 +23°C° 0 mm 1 m/S 589 mmHg 15%
12:00 +24°C° 0 mm 2 m/S 589 mmHg 13%
13:00 +25°C° 0 mm 2 m/S 589 mmHg 12%
14:00 +27°C° 0 mm 2 m/S 588 mmHg 10%
15:00 +27°C° 0 mm 2 m/S 588 mmHg 10%
16:00 +27°C° 0 mm 2 m/S 588 mmHg 10%
17:00 +27°C° 0 mm 2 m/S 588 mmHg 9%
18:00 +26°C° 0 mm 2 m/S 588 mmHg 10%
19:00 +25°C° 0 mm 2 m/S 588 mmHg 12%
20:00 +23°C° 0 mm 2 m/S 588 mmHg 13%
21:00 +23°C° 0 mm 2 m/S 587 mmHg 14%
22:00 +21°C° 0 mm 2 m/S 587 mmHg 14%
23:00 +20°C° 0 mm 2 m/S 587 mmHg 15%

Morgen, 19 September, Samstag

Zeit Temperatur Niederschläge Wind Luftdruck Luftfeuchtigkeit
00:00 +20°C° 0 mm 1 m/S 586 mmHg 15%
01:00 +19°C° 0 mm 1 m/S 586 mmHg 16%
02:00 +18°C° 0 mm 1 m/S 586 mmHg 17%
03:00 +18°C° 0 mm 1 m/S 585 mmHg 18%
04:00 +16°C° 0 mm 1 m/S 585 mmHg 20%
05:00 +14°C° 0 mm 0 m/S 585 mmHg 21%
06:00 +15°C° 0 mm 0 m/S 586 mmHg 19%
07:00 +18°C° 0 mm 1 m/S 587 mmHg 18%
08:00 +20°C° 0 mm 1 m/S 588 mmHg 16%
09:00 +21°C° 0 mm 1 m/S 588 mmHg 15%
10:00 +23°C° 0 mm 1 m/S 588 mmHg 13%
11:00 +24°C° 0 mm 1 m/S 589 mmHg 11%
12:00 +25°C° 0 mm 2 m/S 589 mmHg 10%
13:00 +26°C° 0 mm 3 m/S 589 mmHg 8%
14:00 +27°C° 0 mm 3 m/S 589 mmHg 7%
15:00 +27°C° 0 mm 3 m/S 589 mmHg 7%
16:00 +27°C° 0 mm 3 m/S 588 mmHg 6%
17:00 +27°C° 0 mm 3 m/S 588 mmHg 6%
18:00 +26°C° 0 mm 3 m/S 588 mmHg 7%
19:00 +25°C° 0 mm 2 m/S 587 mmHg 9%
20:00 +23°C° 0 mm 2 m/S 587 mmHg 10%
21:00 +21°C° 0 mm 2 m/S 587 mmHg 11%
22:00 +21°C° 0 mm 2 m/S 587 mmHg 13%
23:00 +20°C° 0 mm 2 m/S 587 mmHg 14%

übermorgen, 20 September, Sonntag

Zeit Temperatur Niederschläge Wind Luftdruck Luftfeuchtigkeit
00:00 +19°C° 0 mm 2 m/S 587 mmHg 16%
01:00 +19°C° 0 mm 1 m/S 586 mmHg 18%
02:00 +19°C° 0 mm 1 m/S 586 mmHg 20%
03:00 +18°C° 0 mm 1 m/S 586 mmHg 20%
04:00 +16°C° 0 mm 1 m/S 585 mmHg 20%
05:00 +16°C° 0 mm 1 m/S 585 mmHg 20%
06:00 +18°C° 0 mm 1 m/S 586 mmHg 17%
07:00 +19°C° 0 mm 1 m/S 587 mmHg 15%
08:00 +20°C° 0 mm 1 m/S 588 mmHg 13%
09:00 +21°C° 0 mm 1 m/S 588 mmHg 12%
10:00 +23°C° 0 mm 1 m/S 589 mmHg 10%
11:00 +25°C° 0 mm 1 m/S 589 mmHg 9%
12:00 +26°C° 0 mm 1 m/S 589 mmHg 7%
13:00 +27°C° 0 mm 2 m/S 589 mmHg 6%
14:00 +28°C° 0 mm 2 m/S 589 mmHg 5%
15:00 +28°C° 0 mm 2 m/S 589 mmHg 4%
16:00 +28°C° 0 mm 2 m/S 589 mmHg 4%
17:00 +29°C° 0 mm 2 m/S 588 mmHg 4%
18:00 +27°C° 0 mm 2 m/S 588 mmHg 5%
19:00 +25°C° 0 mm 2 m/S 588 mmHg 6%
20:00 +24°C° 0 mm 3 m/S 587 mmHg 7%
21:00 +22°C° 0 mm 3 m/S 587 mmHg 9%
22:00 +21°C° 0 mm 2 m/S 587 mmHg 10%
23:00 +20°C° 0 mm 2 m/S 586 mmHg 12%

21 September, Montag

Zeit Temperatur Niederschläge Wind Luftdruck Luftfeuchtigkeit
00:00 +19°C° 0 mm 2 m/S 586 mmHg 13%
01:00 +18°C° 0 mm 2 m/S 585 mmHg 15%
02:00 +18°C° 0 mm 1 m/S 585 mmHg 16%
03:00 +16°C° 0 mm 1 m/S 585 mmHg 16%
04:00 +16°C° 0 mm 1 m/S 585 mmHg 17%
05:00 +15°C° 0 mm 1 m/S 584 mmHg 18%
06:00 +16°C° 0 mm 1 m/S 585 mmHg 16%
07:00 +19°C° 0 mm 1 m/S 586 mmHg 14%
08:00 +18°C° 0 mm 0 m/S 587 mmHg 13%
09:00 +22°C° 0 mm 1 m/S 588 mmHg 10%
10:00 +23°C° 0 mm 1 m/S 588 mmHg 8%
11:00 +25°C° 0 mm 2 m/S 589 mmHg 6%
12:00 +26°C° 0 mm 2 m/S 589 mmHg 5%
13:00 +28°C° 0 mm 2 m/S 589 mmHg 4%
14:00 +29°C° 0 mm 2 m/S 589 mmHg 3%
15:00 +29°C° 0 mm 2 m/S 589 mmHg 3%
16:00 +29°C° 0 mm 2 m/S 589 mmHg 3%
17:00 +29°C° 0 mm 1 m/S 588 mmHg 3%
18:00 +27°C° 0 mm 1 m/S 588 mmHg 4%
19:00 +25°C° 0 mm 2 m/S 588 mmHg 5%
20:00 +23°C° 0 mm 2 m/S 587 mmHg 7%
21:00 +22°C° 0 mm 1 m/S 587 mmHg 9%
22:00 +21°C° 0 mm 1 m/S 587 mmHg 11%
23:00 +20°C° 0 mm 1 m/S 587 mmHg 13%

22 September, Dienstag

Zeit Temperatur Niederschläge Wind Luftdruck Luftfeuchtigkeit
00:00 +19°C° 0 mm 1 m/S 586 mmHg 13%
01:00 +18°C° 0 mm 1 m/S 586 mmHg 13%
02:00 +18°C° 0 mm 1 m/S 585 mmHg 12%
03:00 +16°C° 0 mm 1 m/S 585 mmHg 12%
04:00 +15°C° 0 mm 1 m/S 585 mmHg 12%
05:00 +14°C° 0 mm 1 m/S 585 mmHg 12%
06:00 +16°C° 0 mm 1 m/S 586 mmHg 11%
07:00 +17°C° 0 mm 2 m/S 586 mmHg 10%
08:00 +18°C° 0 mm 2 m/S 587 mmHg 9%
09:00 +20°C° 0 mm 2 m/S 588 mmHg 7%
10:00 +23°C° 0 mm 2 m/S 588 mmHg 6%
11:00 +24°C° 0 mm 1 m/S 588 mmHg 5%
12:00 +26°C° 0 mm 1 m/S 588 mmHg 5%
13:00 +27°C° 0 mm 1 m/S 588 mmHg 4%
14:00 +28°C° 0 mm 1 m/S 588 mmHg 4%
15:00 +28°C° 0 mm 2 m/S 588 mmHg 3%
16:00 +28°C° 0 mm 2 m/S 588 mmHg 3%
17:00 +29°C° 0 mm 2 m/S 588 mmHg 3%
18:00 +27°C° 0 mm 2 m/S 587 mmHg 4%
19:00 +25°C° 0 mm 2 m/S 587 mmHg 5%
20:00 +23°C° 0 mm 2 m/S 586 mmHg 7%
21:00 +21°C° 0 mm 2 m/S 586 mmHg 7%
22:00 +20°C° 0 mm 2 m/S 586 mmHg 8%
23:00 +19°C° 0 mm 2 m/S 586 mmHg 9%

23 September, Mittwoch

Zeit Temperatur Niederschläge Wind Luftdruck Luftfeuchtigkeit
00:00 +18°C° 0 mm 2 m/S 585 mmHg 10%
01:00 +17°C° 0 mm 2 m/S 585 mmHg 10%
02:00 +16°C° 0 mm 1 m/S 584 mmHg 11%
03:00 +16°C° 0 mm 1 m/S 584 mmHg 12%
04:00 +15°C° 0 mm 1 m/S 584 mmHg 13%
05:00 +14°C° 0 mm 1 m/S 584 mmHg 13%
06:00 +15°C° 0 mm 1 m/S 585 mmHg 12%
07:00 +16°C° 0 mm 0 m/S 586 mmHg 11%
08:00 +17°C° 0 mm 0 m/S 587 mmHg 10%
09:00 +19°C° 0 mm 0 m/S 587 mmHg 9%
10:00 +22°C° 0 mm 1 m/S 587 mmHg 8%
11:00 +24°C° 0 mm 1 m/S 588 mmHg 7%
12:00 +25°C° 0 mm 2 m/S 588 mmHg 6%
13:00 +26°C° 0 mm 3 m/S 588 mmHg 6%
14:00 +28°C° 0 mm 3 m/S 588 mmHg 5%
15:00 +27°C° 0 mm 4 m/S 588 mmHg 5%
16:00 +27°C° 0 mm 4 m/S 587 mmHg 5%
17:00 +27°C° 0 mm 5 m/S 587 mmHg 5%
18:00 +26°C° 0 mm 4 m/S 587 mmHg 6%
19:00 +23°C° 0 mm 4 m/S 586 mmHg 8%
20:00 +21°C° 0 mm 3 m/S 586 mmHg 9%
21:00 +20°C° 0 mm 3 m/S 586 mmHg 11%
22:00 +19°C° 0 mm 3 m/S 586 mmHg 12%
23:00 +18°C° 0 mm 3 m/S 586 mmHg 14%
Mehr zeigen